Regional Weather Roundup
Issued by NWS

Home | Current Version | Previous Version | Graphics & Text | Print | Product List | Glossary On
Versions: 1 2 3 4 5 6 7 8 9 10 11 12 13 14 15 16 17 18 19 20 21 22 23 24 25 26
000
ASUS45 KCYS 111210
RWRWY

WYOMING REGIONAL WEATHER ROUNDUP
NATIONAL WEATHER SERVICE CHEYENNE WY
500 AM MST MON DEC 11 2017

NOTE:  "FAIR" INDICATES FEW OR NO CLOUDS BELOW 12,000 FEET
WITH NO SIGNIFICANT WEATHER AND/OR OBSTRUCTIONS TO VISIBILITY.

WYZ001-111300-
YELLOWSTONE NATIONAL PARK

CITY           SKY/WX    TMP DP  RH WIND       PRES   REMARKS
LK YELLOWSTONE   N/A      3   0  87 CALM      30.58S
6HR MIN TEMP:   3; 6HR MAX TEMP:   6;

W YELLOWSTONE  NOT AVBL

$$
WYZ002>013-054>058-071-098>099-111300-
NORTHERN WYOMING

CITY           SKY/WX    TMP DP  RH WIND       PRES   REMARKS
JACKSON        FAIR       8   4  83 N6        30.59F WCI  -2
CODY           FAIR      26  12  55 CALM      30.41R
GREYBULL       FAIR      12   8  84 CALM      30.42R
6HR MIN TEMP:  11; 6HR MAX TEMP:  21;

WORLAND        FAIR      15  12  88 S5        30.41R WCI   8
6HR MIN TEMP:  11; 6HR MAX TEMP:  23;

SHERIDAN       FAIR      37  15  40 W6        30.38R WCI  32
6HR MIN TEMP:  29; 6HR MAX TEMP:  47;

BUFFALO        FAIR      41  10  28 N20G28    30.35R
6HR MIN TEMP:  35; 6HR MAX TEMP:  47;

GILLETTE       FAIR      35  16  45 NW17      30.31S WCI  25
6HR MIN TEMP:  32; 6HR MAX TEMP:  39;

HULETT         FAIR      39  18  41 NW10G26   30.29R WCI  32
NEWCASTLE      FAIR      39  14  35 NW24G31   30.26R WCI  28

$$
WYZ014>020-022>026-101>103-111300-
CENTRAL WYOMING

CITY           SKY/WX    TMP DP  RH WIND       PRES   REMARKS
BIG PINEY      FAIR      17   1  49 CALM      30.48F
6HR MIN TEMP:  16; 6HR MAX TEMP:  27;

PINEDALE       FAIR      27   3  36 W15       30.47S WCI  15
DUBOIS         FAIR      34   3  27 NW14      30.44S WCI  24
LANDER         FAIR      20  13  74 SE3       30.39S
6HR MIN TEMP:  19; 6HR MAX TEMP:  27;

RIVERTON       FAIR      13   9  84 CALM      30.41R
6HR MIN TEMP:  13; 6HR MAX TEMP:  23;

CASPER         FAIR      31  12  45 SW10      30.38S WCI  22
6HR MIN TEMP:  28; 6HR MAX TEMP:  36;

DOUGLAS        FAIR      20  14  77 NW10      30.35S WCI   9
6HR MIN TEMP:  19; 6HR MAX TEMP:  33;


$$
WYZ021-027>030-104>119-111300-
SOUTHERN WYOMING

CITY           SKY/WX    TMP DP  RH WIND       PRES   REMARKS
EVANSTON       FAIR      28   2  32 CALM      30.53F
6HR MIN TEMP:  25; 6HR MAX TEMP:  32;

FORT BRIDGER   FAIR      35  -2  21 W14       30.53F WCI  25
ROCK SPRINGS   FAIR      26   4  38 SW9       30.48F WCI  17
6HR MIN TEMP:  25; 6HR MAX TEMP:  32;

DIXON          FAIR       4  -1  79 E5        30.54F WCI  -5
RAWLINS        FAIR      24   7  48 SE6       30.44F WCI  17
6HR MIN TEMP:  22; 6HR MAX TEMP:  36;

SARATOGA       FAIR      12   1  62 CALM      30.47S
LARAMIE        FAIR      21   3  45 W14       30.37F WCI   8
6HR MIN TEMP:  13; 6HR MAX TEMP:  24;

CHEYENNE       FAIR      39  -1  18 NW12      30.30S WCI  32
6HR MIN TEMP:  37; 6HR MAX TEMP:  43;

TORRINGTON     FAIR      31  12  45 NW6       30.28R WCI  25
6HR MIN TEMP:  31; 6HR MAX TEMP:  37;

PINE BLUFFS    FAIR      30   1  29 MISG      30.29S

$$




USA.gov is the U.S. government's official web portal to all federal, state and local government web resources and services.